Location: ???? ????????
(44.2382°N, 135.4003°E)
Time: 02:00:34
(UTC+00:00)

ASTEX 1 - Pass Details

Date: 19 May 2025
Orbit: 715 x 734 km, 92.7° (Epoch: 16 June)

Event Time Altitude Azimuth Distance (km) Brightness Sun altitude
Rises 15:02:06 0° 4° (N) 3,160 8.0 -25.8°
Reaches altitude 10° 15:04:24 10° 4° (N) 2,237 6.9 -25.8°
Maximum altitude 15:09:21 83° 278° (W) 744 3.3 -25.8°
Enters shadow 15:09:26 82° 257° (WSW) 744 3.3 -25.8°
